Tracking 19489 objects as of 22-Jan-2019
HD Live streaming from Space Station
objects crossing your sky now

FENGYUN 1C DEB

Track FENGYUN 1C DEB now!
10-day predictions


NORAD ID: 30391
Int'l Code: 1999-025ADE
Perigee: 815.9 km
Apogee: 934.3 km
Inclination: 99.0 °
Period: 102.3 minutes
Semi major axis: 7246 km
RCS: 0.0444 m2 (small)
Launch date: May 10, 1999
Source: People's Republic of China (PRC)
Launch site: Taiyaun Space Center, China (TSC)

Note: This is SATELLITE DEBRIS
aabbcc
Your satellite tracking list
Your tracking list is empty




NASA's NSSDC Master Catalog

Two Line Element Set (TLE):
1 30391U 99025ADE 19021.59084312 +.00000342 +00000-0 +22245-3 0  9993
2 30391 099.0053 064.0023 0081657 157.3590 354.9582 14.07494943614053
Source of the keplerian elements: AFSPC